time_stamp(utc),avg(mph),gust(mph),direction(deg),12m_air_temp(f),sonic_u(cm/s),sonic_v(cm/s),sonic_w(cm/s),pressure,2m_air_temp(f),pyranometer(W/m^2)
"2018-12-13 00:02:07+00",4.5,4.5,,38.7,-173,-94,2,1021.95,35.5,0
"2018-12-13 00:07:07+00",3.9,3.9,,38.7,-171,-80,1,1022.07,35.4,0
"2018-12-13 00:12:07+00",3.3,4.3,,38.5,-147,-61,1,1022.11,35.3,0
"2018-12-13 00:17:07+00",3.9,3.9,,38.5,-150,-45,-3,1022,35.3,0
"2018-12-13 00:22:07+00",3.7,4.7,,38.8,-137,-81,2,1022.08,35.4,0
"2018-12-13 00:27:07+00",3.5,3.5,,38.8,-143,-28,-1,1022.07,35.6,0
"2018-12-13 00:32:07+00",3.1,3.1,,38.7,-127,-63,-3,1022.09,35.7,0
"2018-12-13 00:37:07+00",2.2,2.2,,38.4,-69,-54,-3,1022.02,35.8,0
"2018-12-13 00:42:07+00",2.1,2.1,,38.5,-59,-78,8,1021.92,36,0
"2018-12-13 00:47:07+00",2.4,2.4,,38.4,-81,-55,-1,1021.97,36,0
"2018-12-13 00:52:07+00",1.6,1.6,,38.3,-34,-56,0,1022.02,35.8,0
"2018-12-13 00:57:07+00",2.1,2.1,,38.2,-51,-70,3,1022.18,35.7,0
"2018-12-13 01:02:07+00",2.0,2.0,,38.2,-56,-73,-2,1022.07,35.5,0
"2018-12-13 01:07:07+00",2.3,2.3,,38.4,-78,-53,-4,1022.18,35.4,0
"2018-12-13 01:12:07+00",1.8,2.8,,38.5,-78,-39,3,1022.28,35.4,0
"2018-12-13 01:17:07+00",2.2,2.2,,38.6,-88,9,0,1022.35,35.3,0
"2018-12-13 01:22:07+00",0.7,0.7,,38.6,40,-3,0,1022.17,35.3,0
"2018-12-13 01:27:07+00",6.7,7.7,,37.1,186,186,-3,1022.29,34.3,0
"2018-12-13 01:32:07+00",2.3,3.3,,37.1,64,62,-1,1022.58,33.9,0
"2018-12-13 01:37:07+00",4.0,4.0,,36.9,127,99,-1,1022.58,33.7,0
"2018-12-13 01:42:07+00",3.1,3.1,,37,109,64,1,1022.45,33.3,0
"2018-12-13 01:47:07+00",5.7,5.7,,37.1,194,145,7,1022.54,33,0
"2018-12-13 01:52:07+00",6.1,6.1,,37.4,217,144,9,1022.74,32.8,0
"2018-12-13 01:57:07+00",5.8,6.8,,37.7,180,153,3,1022.64,32.8,0
"2018-12-13 02:02:07+00",5.9,6.9,,38,183,153,10,1022.58,32.8,0
"2018-12-13 02:07:07+00",6.4,6.4,,38.1,235,145,13,1022.59,32.6,0
"2018-12-13 02:12:07+00",5.6,6.6,,38,205,125,6,1022.58,32.4,0
"2018-12-13 02:17:07+00",7.0,7.0,,37.5,266,143,23,1022.41,32.1,0
"2018-12-13 02:22:07+00",7.0,7.0,,37.2,307,102,21,1022.37,31.8,0
"2018-12-13 02:27:07+00",6.7,6.7,,36.9,256,115,11,1022.33,31.5,0
"2018-12-13 02:32:07+00",6.8,6.8,,36.8,255,135,17,1022.59,31.2,0
"2018-12-13 02:37:07+00",6.8,6.8,,36.8,257,131,13,1022.6,31,0
"2018-12-13 02:42:07+00",7.3,7.3,,36.9,277,151,19,1022.52,31.3,0
"2018-12-13 02:47:07+00",6.5,7.5,,36.9,264,104,10,1022.45,31.1,0
"2018-12-13 02:52:07+00",6.3,6.3,,36.8,238,108,10,1022.44,30.9,0
"2018-12-13 02:57:07+00",6.4,7.4,,36.8,259,107,0,1022.41,30.9,0
"2018-12-13 03:02:07+00",6.5,7.5,,36.7,246,110,11,1022.46,30.9,0
"2018-12-13 03:07:07+00",6.3,6.3,,36.6,254,101,5,1022.29,31,0
"2018-12-13 03:12:07+00",6.2,6.2,,36.5,247,99,8,1022.28,31,0
"2018-12-13 03:17:07+00",6.8,6.8,,36.6,294,101,21,1022.15,31.1,0
"2018-12-13 03:22:07+00",6.8,6.8,,36.9,289,63,21,1022.08,31.1,0
"2018-12-13 03:27:07+00",4.8,4.8,,36.9,198,41,16,1022.35,31.1,0
"2018-12-13 03:32:07+00",4.1,4.1,,37.4,174,-2,1,1022.4,31.3,0
"2018-12-13 03:37:07+00",3.3,4.3,,38,138,8,6,1022.52,31.9,0
"2018-12-13 03:42:07+00",3.1,4.1,,38.4,128,1,7,1022.61,32.5,0
"2018-12-13 03:47:07+00",2.3,3.3,,38.6,95,-8,7,1022.73,32.8,0
"2018-12-13 03:52:07+00",0.0,0.0,,38.5,49,-21,1,1022.73,32.8,0
"2018-12-13 03:57:07+00",0.7,2.7,,38.3,86,-39,1,1022.69,33,0
"2018-12-13 04:02:07+00",2.6,2.6,,38.4,87,-62,-1,1022.61,33.3,0
"2018-12-13 04:07:07+00",1.8,1.8,,38.6,53,-54,3,1022.69,33.7,0
"2018-12-13 04:12:07+00",2.6,3.6,,38.6,106,-21,-3,1022.62,33.8,0
"2018-12-13 04:17:07+00",2.9,2.9,,38.5,122,-7,-3,1022.43,33.5,0
"2018-12-13 04:22:07+00",1.9,1.9,,38.4,77,4,-3,1022.72,33.4,0
"2018-12-13 04:27:07+00",2.2,2.2,,38.2,89,17,0,1022.77,33.4,0
"2018-12-13 04:32:07+00",0.0,0.0,,38,28,0,6,1022.86,33.5,0
"2018-12-13 04:37:07+00",0.0,0.0,,37.8,-51,-21,-8,1023.1,33.4,0
"2018-12-13 04:42:07+00",0.0,0.0,,37.8,21,0,0,1023,33.4,0
"2018-12-13 04:47:07+00",0.0,0.0,,37.8,42,-23,0,1022.97,33.5,0
"2018-12-13 04:52:07+00",1.5,1.5,,37.8,64,12,5,1023,33.7,0
"2018-12-13 04:57:07+00",0.0,0.0,,37.7,17,39,2,1023.25,33.7,0
"2018-12-13 05:02:07+00",0.0,0.0,,37.7,21,-4,2,1023.21,33.7,0
"2018-12-13 05:07:07+00",0.0,0.0,,37.8,47,-3,4,1023.11,33.7,0
"2018-12-13 05:12:07+00",0.0,0.0,,37.7,44,48,9,1023.1,33.7,0
"2018-12-13 05:17:07+00",0.0,0.0,,37.4,62,43,3,1023,33.5,0
"2018-12-13 05:22:07+00",0.0,0.0,,37.5,77,8,1,1023.05,33.5,0
"2018-12-13 05:27:07+00",0.0,0.0,,37.8,112,-2,-2,1023.02,33.4,0
"2018-12-13 05:32:07+00",0.0,0.0,,37.9,110,-23,-4,1022.99,33.4,0
"2018-12-13 05:37:07+00",0.0,0.0,,38.2,137,-8,-5,1023.03,33.4,0
"2018-12-13 05:42:07+00",4.2,5.2,,38.2,181,-18,2,1022.95,33.5,0
"2018-12-13 05:47:07+00",3.5,3.5,,38.6,101,-109,-6,1023,33.5,0
"2018-12-13 05:52:07+00",4.2,5.2,,39.4,123,-135,-7,1023,33.7,0
"2018-12-13 05:57:07+00",4.0,4.0,,39.7,130,-102,-4,1023.13,34,0
"2018-12-13 06:02:07+00",4.6,5.6,,40,158,-108,-5,1023.05,34.2,0
"2018-12-13 06:07:07+00",4.8,4.8,,40,165,-112,-1,1023.05,34.2,0
"2018-12-13 06:12:07+00",4.7,4.7,,40.1,171,-100,3,1023.1,34.3,0
"2018-12-13 06:17:07+00",5.0,5.0,,40.4,177,-113,1,1023.15,34.4,0
"2018-12-13 06:22:07+00",4.0,4.0,,40.7,117,-118,5,1023.49,34.5,0
"2018-12-13 06:27:07+00",3.9,3.9,,40.7,129,-97,1,1023.48,34.6,0
"2018-12-13 06:32:07+00",3.9,3.9,,40.8,148,-75,1,1023.58,34.9,0
"2018-12-13 06:37:07+00",2.7,2.7,,40.6,105,-24,5,1023.66,35.2,0
"2018-12-13 06:42:07+00",3.3,4.3,,40.2,139,-18,2,1023.6,35.2,0
"2018-12-13 06:47:07+00",4.7,4.7,,39.2,200,35,14,1023.45,35,0
"2018-12-13 06:52:07+00",4.2,5.2,,39.1,177,22,11,1023.48,34.9,0
"2018-12-13 06:57:07+00",4.1,5.1,,39.2,180,-4,6,1023.41,34.8,0
"2018-12-13 07:02:07+00",4.1,5.1,,39.5,176,-21,1,1023.56,34.7,0
"2018-12-13 07:07:07+00",4.5,4.5,,39.8,180,-62,9,1023.51,34.7,0
"2018-12-13 07:12:07+00",4.6,5.6,,40.1,171,-89,5,1023.6,34.6,0
"2018-12-13 07:17:07+00",4.7,5.7,,40.2,142,-136,1,1023.72,34.6,0
"2018-12-13 07:22:07+00",5.7,5.7,,40.7,176,-167,-1,1023.61,35,0
"2018-12-13 07:27:07+00",5.5,5.5,,41.1,173,-157,0,1023.71,35.4,0
"2018-12-13 07:32:07+00",5.6,6.6,,41.3,187,-147,0,1023.8,35.7,0
"2018-12-13 07:37:07+00",4.6,5.6,,41.1,181,-81,1,1023.84,35.8,0
"2018-12-13 07:42:07+00",5.3,6.3,,41.3,212,-85,-1,1023.86,35.8,0
"2018-12-13 07:47:07+00",7.4,8.4,,41.6,276,-157,12,1023.67,35.5,0
"2018-12-13 07:52:07+00",7.6,7.6,,41.9,256,-203,4,1023.66,35.5,0
"2018-12-13 07:57:07+00",7.8,7.8,,42,251,-227,2,1023.62,35.6,0
"2018-12-13 08:02:07+00",7.9,8.9,,42,244,-242,1,1023.59,35.8,0
"2018-12-13 08:07:07+00",7.7,7.7,,42,235,-235,-1,1023.67,36.1,0
"2018-12-13 08:12:07+00",6.5,7.5,,42,187,-206,-3,1023.77,36.3,0
"2018-12-13 08:17:07+00",6.6,6.6,,42.1,201,-205,-1,1023.77,36.7,0
"2018-12-13 08:22:07+00",5.0,5.0,,42,161,-137,3,1023.83,36.9,0
"2018-12-13 08:27:07+00",5.1,6.1,,42.1,155,-157,-2,1023.84,37.1,0
"2018-12-13 08:32:07+00",6.4,6.4,,42.2,209,-178,3,1023.64,37.1,0
"2018-12-13 08:37:07+00",6.5,6.5,,42.2,205,-189,5,1023.73,37.1,0
"2018-12-13 08:42:07+00",7.4,8.4,,42.4,235,-220,3,1023.83,36.9,0
"2018-12-13 08:47:07+00",8.1,9.1,,42.4,255,-244,1,1023.6,37,0
"2018-12-13 08:52:07+00",8.9,8.9,,42.2,288,-256,3,1023.51,37.3,0
"2018-12-13 08:57:07+00",8.8,9.8,,42.2,268,-266,0,1023.55,37.6,0
"2018-12-13 09:02:07+00",7.3,8.3,,42.2,215,-225,-1,1023.75,38,0
"2018-12-13 09:07:07+00",5.3,5.3,,42.1,159,-157,1,1023.77,38.2,0
"2018-12-13 09:12:07+00",5.7,5.7,,42.3,192,-150,0,1023.91,38.5,0
"2018-12-13 09:17:07+00",7.1,7.1,,42.6,244,-179,5,1023.73,38.5,0
"2018-12-13 09:22:07+00",8.2,8.2,,42.8,250,-252,-3,1023.66,38.4,0
"2018-12-13 09:27:07+00",7.8,8.8,,42.6,253,-223,6,1023.68,38.5,0
"2018-12-13 09:32:07+00",7.7,8.7,,42.6,237,-226,5,1023.64,38.5,0
"2018-12-13 09:37:07+00",6.9,7.9,,42.6,188,-232,-4,1023.75,38.5,0
"2018-12-13 09:42:07+00",6.5,7.5,,42.9,152,-236,-6,1023.73,38.7,0
"2018-12-13 09:47:07+00",5.8,5.8,,43.1,120,-218,-7,1023.85,38.7,0
"2018-12-13 09:52:07+00",5.2,5.2,,43,82,-200,-5,1023.87,39,0
"2018-12-13 09:57:07+00",4.4,4.4,,42.9,49,-176,-4,1023.91,39.3,0
"2018-12-13 10:02:07+00",4.2,5.2,,42.7,68,-163,-6,1023.99,39.3,0
"2018-12-13 10:07:07+00",4.0,4.0,,42.6,84,-143,-4,1023.9,39.3,0
"2018-12-13 10:12:07+00",3.7,3.7,,42.7,93,-127,-3,1024.01,39.5,0
"2018-12-13 10:17:07+00",3.9,3.9,,42.7,99,-132,-5,1024.01,39.3,0
"2018-12-13 10:22:07+00",3.8,3.8,,42.7,118,-113,-2,1024.09,39.1,0
"2018-12-13 10:27:07+00",4.5,4.5,,42.7,147,-129,-1,1024.06,38.9,0
"2018-12-13 10:32:07+00",5.8,5.8,,42.8,191,-156,3,1023.9,38.8,0
"2018-12-13 10:37:07+00",6.4,7.4,,43,210,-175,4,1023.99,38.7,0
"2018-12-13 10:42:07+00",6.0,6.0,,43,188,-176,-2,1024.1,38.7,0
"2018-12-13 10:47:07+00",5.9,6.9,,43,193,-172,2,1024.18,38.7,0
"2018-12-13 10:52:07+00",7.2,8.2,,43,231,-206,2,1024.16,38.7,0
"2018-12-13 10:57:07+00",6.9,7.9,,43,188,-226,0,1024.3,38.9,0
"2018-12-13 11:02:07+00",6.8,7.8,,42.9,185,-223,-2,1024.36,39.4,0
"2018-12-13 11:07:07+00",7.6,8.6,,43,205,-253,-6,1024.4,39.7,0
"2018-12-13 11:12:07+00",7.3,8.3,,43.1,188,-245,-2,1024.51,40,0
"2018-12-13 11:17:07+00",7.7,7.7,,43.2,195,-266,-4,1024.59,40.2,0
"2018-12-13 11:22:07+00",8.0,8.0,,43.3,200,-279,-4,1024.52,40.4,0
"2018-12-13 11:27:07+00",7.6,7.6,,43.2,188,-266,-3,1024.62,40.5,0
"2018-12-13 11:32:07+00",8.1,9.1,,43.1,189,-294,-6,1024.71,40.6,0
"2018-12-13 11:37:07+00",8.1,9.1,,43.1,183,-309,-4,1024.68,40.8,0
"2018-12-13 11:42:07+00",8.7,9.7,,43.1,187,-322,-7,1024.69,41,0
"2018-12-13 11:47:07+00",8.8,9.8,,43.2,190,-330,-3,1024.75,41.2,0
"2018-12-13 11:52:07+00",9.5,10.5,,43.2,194,-361,-4,1024.76,41.4,0
"2018-12-13 11:57:07+00",9.9,10.9,,43.2,202,-376,-3,1024.8,41.6,0
"2018-12-13 12:02:07+00",9.2,10.2,,43.2,177,-355,-3,1024.87,41.6,0
"2018-12-13 12:07:07+00",9.4,10.4,,43.3,198,-348,-5,1024.96,41.7,0
"2018-12-13 12:12:07+00",10.5,12.5,,43.4,200,-395,-5,1025,41.9,0
"2018-12-13 12:17:07+00",10.5,11.5,,43.4,230,-387,-4,1025.02,42,0
"2018-12-13 12:22:07+00",10.4,11.4,,43.5,238,-388,-5,1025.06,42.1,0
"2018-12-13 12:27:07+00",9.8,10.8,,43.4,222,-366,-3,1025.17,42.1,0
"2018-12-13 12:32:07+00",11.1,12.1,,43.4,248,-409,-11,1025.18,42.1,0
"2018-12-13 12:37:07+00",12.5,13.5,,43.5,283,-453,-12,1025.19,42.3,0
"2018-12-13 12:42:07+00",12.9,14.9,,43.7,332,-439,-2,1025.19,42.4,0
"2018-12-13 12:47:07+00",12.5,14.5,,43.7,345,-433,-2,1025.25,42.6,0
"2018-12-13 12:52:07+00",13.1,14.1,,43.8,341,-446,-9,1025.36,42.7,0
"2018-12-13 12:57:07+00",12.2,14.2,,43.8,312,-432,-8,1025.4,42.7,0
"2018-12-13 13:02:07+00",12.1,15.1,,43.8,321,-418,-12,1025.45,42.8,0
"2018-12-13 13:07:07+00",13.4,15.4,,43.9,337,-470,-13,1025.5,42.9,0
"2018-12-13 13:12:07+00",13.2,14.2,,43.9,355,-452,-8,1025.62,43,0
"2018-12-13 13:17:07+00",11.9,12.9,,44,315,-411,-4,1025.68,43.1,0.4
"2018-12-13 13:22:07+00",13.1,15.1,,44.1,353,-451,-8,1025.64,43.2,1.2
"2018-12-13 13:27:07+00",12.1,14.1,,44.1,333,-416,-3,1025.78,43.3,1.7
"2018-12-13 13:32:07+00",12.0,15.0,,44.2,329,-408,3,1025.94,43.4,3
"2018-12-13 13:37:07+00",11.8,13.8,,44.2,332,-393,-4,1026,43.5,1.9
"2018-12-13 13:42:07+00",13.4,14.4,,44.3,361,-453,-13,1026.05,43.6,1.9
"2018-12-13 13:47:07+00",12.9,13.9,,44.4,342,-451,-14,1026.1,43.6,3
"2018-12-13 13:52:07+00",13.6,15.6,,44.4,357,-469,-16,1026.27,43.7,1.1
"2018-12-13 13:57:07+00",12.5,14.5,,44.4,348,-412,-15,1026.33,43.7,1.6
"2018-12-13 14:02:07+00",12.2,13.2,,44.4,341,-406,-5,1026.34,43.8,6.9
"2018-12-13 14:07:07+00",12.1,14.1,,44.5,325,-426,-8,1026.36,43.8,9.5
"2018-12-13 14:12:07+00",13.0,15.0,,44.5,338,-447,-4,1026.46,43.9,1.7
"2018-12-13 14:17:07+00",12.1,14.1,,44.6,330,-406,2,1026.53,43.9,2.8
"2018-12-13 14:22:07+00",12.0,14.0,,44.6,337,-394,1,1026.76,44,5.9
"2018-12-13 14:27:07+00",14.5,16.5,,44.8,415,-476,-16,1026.62,44.1,6.6
"2018-12-13 14:32:07+00",11.6,14.6,,44.7,352,-361,3,1026.66,44.1,12.1
"2018-12-13 14:37:07+00",12.5,14.5,,44.7,388,-374,-10,1026.75,44.2,8.7
"2018-12-13 14:42:07+00",12.0,14.0,,44.7,356,-383,-5,1026.81,44.2,9.5
"2018-12-13 14:47:07+00",12.1,13.1,,44.8,348,-387,-9,1026.79,44.3,17.3
"2018-12-13 14:52:07+00",11.8,13.8,,44.8,329,-389,-10,1026.8,44.4,22.9
"2018-12-13 14:57:07+00",11.5,13.5,,45,314,-384,-5,1026.79,44.6,11.7
"2018-12-13 15:02:07+00",13.5,14.5,,45,345,-475,-13,1026.76,44.6,8.1
"2018-12-13 15:07:07+00",12.9,14.9,,45,358,-426,-4,1026.77,44.5,0.6
"2018-12-13 15:12:07+00",11.5,13.5,,44.9,335,-374,-10,1026.87,44.4,2.8
"2018-12-13 15:17:07+00",10.8,12.8,,44.9,325,-335,0,1026.92,44.5,15
"2018-12-13 15:22:07+00",11.7,12.7,,45.1,354,-373,4,1026.91,44.6,5.4
"2018-12-13 15:27:07+00",10.9,12.9,,45.1,318,-352,-8,1027.01,44.6,4.1
"2018-12-13 15:32:07+00",11.2,12.2,,45.1,335,-351,-1,1026.98,44.6,7.5
"2018-12-13 15:37:07+00",11.7,13.7,,45.2,343,-378,-10,1026.95,44.7,11.1
"2018-12-13 15:42:07+00",10.9,12.9,,45.2,313,-351,-4,1026.99,44.8,19.3
"2018-12-13 15:47:07+00",10.7,12.7,,45.3,304,-340,9,1027,44.9,27.2
"2018-12-13 15:52:07+00",10.9,11.9,,45.4,308,-347,-7,1026.96,45,26.5
"2018-12-13 15:57:07+00",10.2,12.2,,45.4,311,-317,-4,1026.85,45.1,21.4
"2018-12-13 16:02:07+00",9.6,11.6,,45.4,295,-302,18,1026.85,45.2,20.3
"2018-12-13 16:07:07+00",10.2,11.2,,45.5,321,-308,-6,1026.79,45.3,24.8
"2018-12-13 16:12:07+00",10.9,11.9,,45.5,358,-320,-9,1026.74,45.3,33.2
"2018-12-13 16:17:07+00",9.9,10.9,,45.5,323,-284,-1,1026.71,45.4,35.2
"2018-12-13 16:22:07+00",9.6,10.6,,45.6,326,-259,-1,1026.76,45.5,34.2
"2018-12-13 16:27:07+00",9.5,11.5,,45.6,344,-235,7,1026.67,45.6,23.7
"2018-12-13 16:32:07+00",9.7,10.7,,45.5,355,-241,9,1026.63,45.5,17.1
"2018-12-13 16:37:07+00",10.3,11.3,,45.5,402,-220,1,1026.64,45.5,17.9
"2018-12-13 16:42:07+00",9.2,11.2,,45.4,380,-155,7,1026.54,45.4,29.5
"2018-12-13 16:47:07+00",8.2,10.2,,45.4,327,-138,10,1026.59,45.5,51.3
"2018-12-13 16:52:07+00",8.4,10.4,,45.5,330,-170,8,1026.54,45.6,43.3
"2018-12-13 16:57:07+00",10.8,12.8,,45.7,435,-206,-7,1026.6,45.8,50.2
"2018-12-13 17:02:07+00",8.4,11.4,,45.6,338,-160,15,1026.68,45.9,50.5
"2018-12-13 17:07:07+00",9.2,11.2,,45.7,373,-161,7,1026.6,45.9,31.5
"2018-12-13 17:12:07+00",9.0,10.0,,45.8,368,-140,12,1026.67,45.9,25.9
"2018-12-13 17:17:07+00",7.2,8.2,,45.7,289,-114,20,1026.74,45.8,15.6
"2018-12-13 17:22:07+00",7.6,8.6,,45.6,300,-155,-4,1026.56,45.7,15.9
"2018-12-13 17:27:07+00",7.6,8.6,,45.6,295,-164,-4,1026.58,45.7,19.9
"2018-12-13 17:32:07+00",7.3,9.3,,45.7,248,-198,-4,1026.51,45.8,23.6
"2018-12-13 17:37:07+00",7.5,8.5,,45.9,247,-209,-1,1026.48,45.9,28.9
"2018-12-13 17:42:07+00",7.8,8.8,,45.9,280,-184,-3,1026.53,46,24
"2018-12-13 17:47:07+00",9.5,10.5,,45.9,353,-229,4,1026.44,46,36
"2018-12-13 17:52:07+00",9.8,11.8,,46,363,-238,-5,1026.44,46.1,50.6
"2018-12-13 17:57:07+00",8.5,10.5,,46,323,-187,19,1026.39,46.2,46.5
"2018-12-13 18:02:07+00",9.6,11.6,,45.9,374,-199,-1,1026.42,46.3,45.4
"2018-12-13 18:07:07+00",8.6,9.6,,46,330,-211,14,1026.4,46.3,22.7
"2018-12-13 18:12:07+00",10.4,12.4,,46,379,-265,-2,1026.32,46.2,27
"2018-12-13 18:17:07+00",10.8,12.8,,46,384,-279,-2,1026.25,46.1,45.5
"2018-12-13 18:22:07+00",12.2,14.2,,46,429,-312,-4,1026.08,46.2,34
"2018-12-13 18:27:07+00",12.3,14.3,,46,442,-313,10,1026.06,46.1,27.9
"2018-12-13 18:32:07+00",12.5,15.5,,46,469,-280,10,1025.89,46,23.6
"2018-12-13 18:37:07+00",11.6,12.6,,45.9,462,-236,8,1025.96,45.9,33
"2018-12-13 18:42:07+00",11.1,13.1,,45.9,446,-203,7,1025.97,45.9,49.3
"2018-12-13 18:47:07+00",10.7,11.7,,45.9,415,-207,11,1026.08,45.9,45.6
"2018-12-13 18:52:07+00",10.5,12.5,,46,412,-204,8,1026.11,46,120.1
"2018-12-13 18:57:07+00",9.7,11.7,,46,392,-170,6,1026.19,46,42.9
"2018-12-13 19:02:07+00",8.9,9.9,,46.1,361,-164,3,1026.35,46,124.6
"2018-12-13 19:07:07+00",9.0,11.0,,46.3,373,-150,-6,1026.34,46.4,166.1
"2018-12-13 19:12:07+00",8.6,10.6,,46.8,356,-125,4,1026.44,47.3,190.5
"2018-12-13 19:17:07+00",9.2,10.2,,47.1,385,-128,8,1026.57,47.7,168
"2018-12-13 19:22:07+00",10.0,13.0,,47,420,-128,23,1026.59,47.8,158.4
"2018-12-13 19:27:07+00",10.6,11.6,,46.9,448,-159,-12,1026.72,47.6,65.6
"2018-12-13 19:32:07+00",7.9,8.9,,46.6,339,-118,19,1026.8,47.2,55.1
"2018-12-13 19:37:07+00",8.6,9.6,,46.6,369,-114,6,1026.9,47,49.1
"2018-12-13 19:42:07+00",8.6,9.6,,47,355,-139,15,1027.06,47.3,127.8
"2018-12-13 19:47:07+00",7.4,8.4,,47.1,310,-85,15,1027.14,47.3,38.4
"2018-12-13 19:52:07+00",8.0,9.0,,46.8,342,-63,6,1027.25,47.1,43.2
"2018-12-13 19:57:07+00",7.5,8.5,,46.7,327,-36,16,1027.4,47,40.6
"2018-12-13 20:02:07+00",7.2,8.2,,46.6,320,-40,5,1027.4,46.9,47.4
"2018-12-13 20:07:07+00",7.1,7.1,,46.6,310,-52,16,1027.39,46.7,89.4
"2018-12-13 20:12:07+00",7.5,9.5,,46.8,322,-74,4,1027.39,47,44.6
"2018-12-13 20:17:07+00",7.9,8.9,,46.8,334,-75,12,1027.39,46.8,13.2
"2018-12-13 20:22:07+00",7.2,8.2,,46.5,313,-50,0,1027.56,46.4,8.6
"2018-12-13 20:27:07+00",6.5,7.5,,46.3,282,-9,12,1027.58,46.2,7.4
"2018-12-13 20:32:07+00",6.2,7.2,,46.1,267,13,18,1027.6,46,9.3
"2018-12-13 20:37:07+00",6.7,7.7,,46.1,291,30,14,1027.57,45.9,10.3
"2018-12-13 20:42:07+00",6.1,7.1,,46.1,260,44,16,1027.61,45.7,9.5
"2018-12-13 20:47:07+00",6.4,7.4,,46.1,273,52,18,1027.65,45.6,0.2
"2018-12-13 20:52:07+00",6.8,7.8,,46.1,290,61,14,1027.73,45.4,0
"2018-12-13 20:57:07+00",6.6,6.6,,46.1,279,57,16,1027.86,45.3,0
"2018-12-13 21:02:07+00",6.4,7.4,,45.9,274,77,16,1027.96,45.1,0
"2018-12-13 21:07:07+00",6.4,7.4,,45.8,271,81,16,1027.87,44.9,0
"2018-12-13 21:12:07+00",6.7,7.7,,45.7,285,85,18,1027.98,44.7,0
"2018-12-13 21:17:07+00",6.5,7.5,,45.7,278,95,19,1028.01,44.5,0
"2018-12-13 21:22:07+00",6.8,7.8,,45.6,288,103,17,1027.97,44.2,0
"2018-12-13 21:27:07+00",6.8,7.8,,45.5,294,100,20,1027.88,43.7,0
"2018-12-13 21:32:07+00",7.2,8.2,,45.4,303,113,18,1027.93,43.2,0
"2018-12-13 21:37:07+00",7.6,8.6,,45.1,323,119,19,1027.98,42.7,0
"2018-12-13 21:42:07+00",6.7,6.7,,44.5,270,106,12,1027.93,42.3,0
"2018-12-13 21:47:07+00",7.2,8.2,,44.3,310,110,18,1027.84,41.7,0
"2018-12-13 21:52:07+00",7.8,8.8,,44.1,337,115,20,1027.81,41.2,0
"2018-12-13 21:57:07+00",9.0,10.0,,44.3,386,114,25,1027.78,40.7,0
"2018-12-13 22:02:07+00",9.6,10.6,,44.5,413,122,27,1027.73,40.5,0
"2018-12-13 22:07:07+00",9.6,10.6,,44.6,415,116,25,1027.71,40.7,0
"2018-12-13 22:12:07+00",9.7,10.7,,44.6,418,109,25,1027.62,41,0
"2018-12-13 22:17:07+00",9.4,10.4,,44.5,402,128,26,1027.6,41.1,0
"2018-12-13 22:22:07+00",9.4,10.4,,44.6,408,108,25,1027.65,41.1,0
"2018-12-13 22:27:07+00",10.0,11.0,,44.6,437,91,24,1027.67,41.3,0
"2018-12-13 22:32:07+00",10.8,11.8,,44.7,476,82,29,1027.61,41.5,0
"2018-12-13 22:37:07+00",11.7,12.7,,45,519,65,23,1027.54,41.8,0
"2018-12-13 22:42:07+00",11.4,12.4,,45.1,511,27,25,1027.55,42,0
"2018-12-13 22:47:07+00",11.8,12.8,,45.2,523,13,22,1027.62,42.3,0
"2018-12-13 22:52:07+00",11.6,13.6,,45.1,511,28,28,1027.68,42.4,0
"2018-12-13 22:57:07+00",11.6,12.6,,45,516,18,29,1027.58,42.4,0
"2018-12-13 23:02:07+00",11.1,13.1,,44.9,493,-2,26,1027.54,42.4,0
"2018-12-13 23:07:07+00",11.3,12.3,,44.9,503,-24,24,1027.58,42.5,0
"2018-12-13 23:12:07+00",11.7,12.7,,44.9,521,-28,20,1027.52,42.6,0
"2018-12-13 23:17:07+00",11.9,13.9,,45,527,-24,24,1027.54,42.5,0
"2018-12-13 23:22:07+00",11.4,12.4,,45,511,-38,21,1027.56,42.7,0
"2018-12-13 23:27:07+00",10.8,11.8,,45.1,478,-61,18,1027.42,42.8,0
"2018-12-13 23:32:07+00",10.6,11.6,,45.1,458,-70,20,1027.6,42.9,0
"2018-12-13 23:37:07+00",7.4,8.4,,45,330,4,18,1027.76,42.8,0
"2018-12-13 23:42:07+00",5.2,6.2,,44.9,187,115,11,1027.99,42.6,0
"2018-12-13 23:47:07+00",7.5,8.5,,45,319,98,20,1028.02,42.2,0
"2018-12-13 23:52:07+00",9.5,9.5,,45.5,416,48,28,1027.93,41.8,0
"2018-12-13 23:57:07+00",9.4,9.4,,45.7,411,39,27,1028.03,41.4,0
